Time,TemperatureF,DewpointF,PressureIn,WindDirection,WindDirectionDegrees,WindSpeedMPH,WindSpeedGustMPH,Humidity,HourlyPrecipIn,Conditions,Clouds,dailyrainin,SoftwareType,DateUTC
2013-03-15 00:01:00,49.7,36.8,30.18,SSW,212,3.0,3.0,61,0.00,,---,0.00,VWS V14.01,2013-03-15 05:01:00,
2013-03-15 00:02:00,49.7,36.8,30.17,SSW,213,1.0,3.0,61,0.00,,---,0.00,VWS V14.01,2013-03-15 05:02:00,
2013-03-15 00:03:00,49.7,36.8,30.18,SW,231,1.0,3.0,61,0.00,,---,0.00,VWS V14.01,2013-03-15 05:03:00,
2013-03-15 00:06:00,49.7,36.8,30.17,SW,227,1.0,3.0,61,0.00,,---,0.00,VWS V14.01,2013-03-15 05:06:00,
2013-03-15 00:07:00,49.7,36.8,30.17,SSW,212,2.0,3.0,61,0.00,,---,0.00,VWS V14.01,2013-03-15 05:07:00,
2013-03-15 00:08:00,49.7,36.8,30.17,SSW,213,2.0,3.0,61,0.00,,---,0.00,VWS V14.01,2013-03-15 05:08:00,
2013-03-15 00:11:00,49.8,36.5,30.17,SW,217,2.0,3.0,60,0.00,,---,0.00,VWS V14.01,2013-03-15 05:11:00,
2013-03-15 00:12:00,49.8,36.5,30.17,SSW,200,2.0,3.0,60,0.00,,---,0.00,VWS V14.01,2013-03-15 05:12:00,
2013-03-15 00:13:00,49.8,36.5,30.17,SSW,209,2.0,3.0,60,0.00,,---,0.00,VWS V14.01,2013-03-15 05:13:00,
2013-03-15 00:16:00,49.8,36.5,30.17,SSW,212,2.0,3.0,60,0.00,,---,0.00,VWS V14.01,2013-03-15 05:16:00,
2013-03-15 00:17:00,49.8,36.5,30.17,SSW,212,1.0,3.0,60,0.00,,---,0.00,VWS V14.01,2013-03-15 05:17:00,
2013-03-15 00:18:00,49.8,36.5,30.17,SSW,212,2.0,3.0,60,0.00,,---,0.00,VWS V14.01,2013-03-15 05:18:00,
2013-03-15 00:21:00,49.8,36.5,30.17,SSW,212,1.0,3.0,60,0.00,,---,0.00,VWS V14.01,2013-03-15 05:21:00,
2013-03-15 00:22:00,49.8,36.5,30.17,SSW,213,3.0,3.0,60,0.00,,---,0.00,VWS V14.01,2013-03-15 05:22:00,
2013-03-15 00:23:00,49.7,36.4,30.17,SW,214,2.0,3.0,60,0.00,,---,0.00,VWS V14.01,2013-03-15 05:23:00,
2013-03-15 00:27:00,49.7,36.8,30.17,SW,233,2.0,4.0,61,0.00,,---,0.00,VWS V14.01,2013-03-15 05:27:00,
2013-03-15 00:28:00,49.7,36.8,30.17,SW,231,2.0,4.0,61,0.00,,---,0.00,VWS V14.01,2013-03-15 05:28:00,
2013-03-15 00:32:00,49.6,36.7,30.16,SW,217,2.0,3.0,61,0.00,,---,0.00,VWS V14.01,2013-03-15 05:32:00,
2013-03-15 00:33:00,49.6,36.7,30.16,SSW,212,2.0,3.0,61,0.00,,---,0.00,VWS V14.01,2013-03-15 05:33:00,
2013-03-15 00:38:00,49.5,36.6,30.16,SW,225,2.0,5.0,61,0.00,,---,0.00,VWS V14.01,2013-03-15 05:38:00,
2013-03-15 00:43:00,49.5,36.6,30.16,SW,221,2.0,5.0,61,0.00,,---,0.00,VWS V14.01,2013-03-15 05:43:00,
2013-03-15 00:44:00,49.5,36.6,30.16,SW,216,3.0,5.0,61,0.00,,---,0.00,VWS V14.01,2013-03-15 05:44:00,
2013-03-15 00:48:00,49.4,36.5,30.16,SW,225,2.0,4.0,61,0.00,,---,0.00,VWS V14.01,2013-03-15 05:48:00,
2013-03-15 00:49:00,49.4,36.5,30.16,SW,219,2.0,4.0,61,0.00,,---,0.00,VWS V14.01,2013-03-15 05:49:00,
2013-03-15 00:53:00,49.4,36.5,30.16,SSW,212,3.0,4.0,61,0.00,,---,0.00,VWS V14.01,2013-03-15 05:53:00,
2013-03-15 00:55:00,49.4,36.5,30.16,SW,225,2.0,5.0,61,0.00,,---,0.00,VWS V14.01,2013-03-15 05:55:00,
2013-03-15 00:58:00,49.5,36.6,30.16,SSW,202,3.0,5.0,61,0.00,,---,0.00,VWS V14.01,2013-03-15 05:58:00,
2013-03-15 01:00:00,49.5,36.6,30.16,South,190,3.0,5.0,61,0.00,,---,0.00,VWS V14.01,2013-03-15 06:00:00,
2013-03-15 01:03:00,49.5,36.6,30.16,SW,234,2.0,4.0,61,0.00,,---,0.00,VWS V14.01,2013-03-15 06:03:00,
2013-03-15 01:05:00,49.5,36.6,30.15,SSW,205,2.0,4.0,61,0.00,,---,0.00,VWS V14.01,2013-03-15 06:05:00,
2013-03-15 01:08:00,49.5,36.6,30.15,SW,216,2.0,6.0,61,0.00,,---,0.00,VWS V14.01,2013-03-15 06:08:00,
2013-03-15 01:10:00,49.5,36.6,30.15,SW,226,1.0,6.0,61,0.00,,---,0.00,VWS V14.01,2013-03-15 06:10:00,
2013-03-15 01:13:00,49.5,36.6,30.15,SW,216,2.0,6.0,61,0.00,,---,0.00,VWS V14.01,2013-03-15 06:13:00,
2013-03-15 01:14:00,49.5,36.6,30.15,SW,219,1.0,6.0,61,0.00,,---,0.00,VWS V14.01,2013-03-15 06:14:00,
2013-03-15 01:15:00,49.5,36.6,30.15,SW,225,1.0,6.0,61,0.00,,---,0.00,VWS V14.01,2013-03-15 06:15:00,
2013-03-15 01:18:00,49.4,36.5,30.15,SW,221,3.0,3.0,61,0.00,,---,0.00,VWS V14.01,2013-03-15 06:18:00,
2013-03-15 01:19:00,49.5,36.6,30.15,SW,228,2.0,3.0,61,0.00,,---,0.00,VWS V14.01,2013-03-15 06:19:00,
2013-03-15 01:20:00,49.4,36.9,30.15,SSW,209,3.0,4.0,62,0.00,,---,0.00,VWS V14.01,2013-03-15 06:20:00,
2013-03-15 01:23:00,49.4,36.5,30.15,SW,235,2.0,5.0,61,0.00,,---,0.00,VWS V14.01,2013-03-15 06:23:00,
2013-03-15 01:24:00,49.4,36.9,30.15,SSW,211,3.0,5.0,62,0.00,,---,0.00,VWS V14.01,2013-03-15 06:24:00,
2013-03-15 01:25:00,49.4,36.5,30.15,SSW,198,4.0,5.0,61,0.00,,---,0.00,VWS V14.01,2013-03-15 06:25:00,
2013-03-15 01:28:00,49.5,36.6,30.15,WSW,255,3.0,5.0,61,0.00,,---,0.00,VWS V14.01,2013-03-15 06:28:00,
2013-03-15 01:29:00,49.5,36.6,30.15,SW,217,2.0,5.0,61,0.00,,---,0.00,VWS V14.01,2013-03-15 06:29:00,
2013-03-15 01:30:00,49.5,36.6,30.15,SW,218,2.0,5.0,61,0.00,,---,0.00,VWS V14.01,2013-03-15 06:30:00,
2013-03-15 01:33:00,49.5,36.6,30.15,SSW,211,3.0,3.0,61,0.00,,---,0.00,VWS V14.01,2013-03-15 06:33:00,
2013-03-15 01:34:00,49.5,36.6,30.15,SW,235,3.0,4.0,61,0.00,,---,0.00,VWS V14.01,2013-03-15 06:34:00,
2013-03-15 01:35:00,49.5,36.6,30.15,SW,225,3.0,4.0,61,0.00,,---,0.00,VWS V14.01,2013-03-15 06:35:00,
2013-03-15 01:38:00,49.5,36.6,30.15,SW,221,3.0,4.0,61,0.00,,---,0.00,VWS V14.01,2013-03-15 06:38:00,
2013-03-15 01:39:00,49.6,36.7,30.15,SSW,211,3.0,4.0,61,0.00,,---,0.00,VWS V14.01,2013-03-15 06:39:00,
2013-03-15 01:40:00,49.6,36.7,30.15,SW,228,4.0,6.0,61,0.00,,---,0.00,VWS V14.01,2013-03-15 06:40:00,
2013-03-15 01:43:00,49.6,36.7,30.15,SW,228,3.0,6.0,61,0.00,,---,0.00,VWS V14.01,2013-03-15 06:43:00,
2013-03-15 01:44:00,49.6,36.7,30.15,SW,221,2.0,6.0,61,0.00,,---,0.00,VWS V14.01,2013-03-15 06:44:00,
2013-03-15 01:45:00,49.6,36.7,30.15,SW,225,2.0,3.0,61,0.00,,---,0.00,VWS V14.01,2013-03-15 06:45:00,
2013-03-15 01:48:00,49.6,36.7,30.15,SW,228,2.0,3.0,61,0.00,,---,0.00,VWS V14.01,2013-03-15 06:48:00,
2013-03-15 01:49:00,49.6,36.7,30.15,SW,228,1.0,3.0,61,0.00,,---,0.00,VWS V14.01,2013-03-15 06:49:00,
2013-03-15 01:51:00,49.5,36.6,30.15,SW,219,2.0,4.0,61,0.00,,---,0.00,VWS V14.01,2013-03-15 06:51:00,
2013-03-15 01:53:00,49.5,37.0,30.15,SW,235,3.0,4.0,62,0.00,,---,0.00,VWS V14.01,2013-03-15 06:53:00,
2013-03-15 01:54:00,49.5,37.0,30.14,SW,216,3.0,4.0,62,0.00,,---,0.00,VWS V14.01,2013-03-15 06:54:00,
2013-03-15 01:55:00,49.5,37.0,30.14,SW,214,3.0,4.0,62,0.00,,---,0.00,VWS V14.01,2013-03-15 06:55:00,
2013-03-15 01:56:00,49.5,37.0,30.15,SW,218,1.0,4.0,62,0.00,,---,0.00,VWS V14.01,2013-03-15 06:56:00,
2013-03-15 01:58:00,49.5,37.0,30.14,SW,228,2.0,4.0,62,0.00,,---,0.00,VWS V14.01,2013-03-15 06:58:00,
2013-03-15 01:59:00,49.5,37.0,30.14,SW,214,2.0,5.0,62,0.00,,---,0.00,VWS V14.01,2013-03-15 06:59:00,
2013-03-15 02:00:00,49.4,36.9,30.14,SSW,193,3.0,5.0,62,0.00,,---,0.00,VWS V14.01,2013-03-15 07:00:00,
2013-03-15 02:02:00,49.4,36.9,30.14,South,175,5.0,5.0,62,0.00,,---,0.00,VWS V14.01,2013-03-15 07:02:00,
2013-03-15 02:03:00,49.4,36.9,30.14,SW,232,2.0,5.0,62,0.00,,---,0.00,VWS V14.01,2013-03-15 07:03:00,
2013-03-15 02:04:00,49.5,37.0,30.14,WSW,248,2.0,5.0,62,0.00,,---,0.00,VWS V14.01,2013-03-15 07:04:00,
2013-03-15 02:05:00,49.5,37.0,30.14,WSW,250,1.0,5.0,62,0.00,,---,0.00,VWS V14.01,2013-03-15 07:05:00,
2013-03-15 02:07:00,49.5,37.0,30.14,SW,235,2.0,5.0,62,0.00,,---,0.00,VWS V14.01,2013-03-15 07:07:00,
2013-03-15 02:09:00,49.5,37.0,30.14,SW,235,2.0,5.0,62,0.00,,---,0.00,VWS V14.01,2013-03-15 07:09:00,
2013-03-15 02:10:00,49.5,37.0,30.14,SW,225,2.0,5.0,62,0.00,,---,0.00,VWS V14.01,2013-03-15 07:10:00,
2013-03-15 02:12:00,49.5,37.0,30.14,SW,220,2.0,5.0,62,0.00,,---,0.00,VWS V14.01,2013-03-15 07:12:00,
2013-03-15 02:14:00,49.5,37.0,30.14,SSW,211,3.0,5.0,62,0.00,,---,0.00,VWS V14.01,2013-03-15 07:14:00,
2013-03-15 02:15:00,49.5,37.0,30.14,SW,218,3.0,5.0,62,0.00,,---,0.00,VWS V14.01,2013-03-15 07:15:00,
2013-03-15 02:17:00,49.6,37.1,30.14,SW,218,2.0,3.0,62,0.00,,---,0.00,VWS V14.01,2013-03-15 07:17:00,
2013-03-15 02:19:00,49.6,37.1,30.14,SW,225,3.0,3.0,62,0.00,,---,0.00,VWS V14.01,2013-03-15 07:19:00,
2013-03-15 02:20:00,49.6,37.1,30.14,SW,217,3.0,3.0,62,0.00,,---,0.00,VWS V14.01,2013-03-15 07:20:00,
2013-03-15 02:22:00,49.6,37.1,30.14,SW,217,2.0,3.0,62,0.00,,---,0.00,VWS V14.01,2013-03-15 07:22:00,
2013-03-15 02:24:00,49.6,37.1,30.14,SSW,206,2.0,4.0,62,0.00,,---,0.00,VWS V14.01,2013-03-15 07:24:00,
2013-03-15 02:25:00,49.6,37.1,30.14,SSW,194,4.0,4.0,62,0.00,,---,0.00,VWS V14.01,2013-03-15 07:25:00,
2013-03-15 02:27:00,49.6,37.1,30.14,SSW,202,2.0,4.0,62,0.00,,---,0.00,VWS V14.01,2013-03-15 07:27:00,
2013-03-15 02:30:00,49.6,37.5,30.14,WSW,241,2.0,4.0,63,0.00,,---,0.00,VWS V14.01,2013-03-15 07:30:00,
2013-03-15 02:33:00,49.6,37.5,30.14,SW,221,2.0,4.0,63,0.00,,---,0.00,VWS V14.01,2013-03-15 07:33:00,
2013-03-15 02:35:00,49.7,37.6,30.14,SW,232,2.0,4.0,63,0.00,,---,0.00,VWS V14.01,2013-03-15 07:35:00,
2013-03-15 02:38:00,49.7,37.6,30.14,SW,217,3.0,4.0,63,0.00,,---,0.00,VWS V14.01,2013-03-15 07:38:00,
2013-03-15 02:40:00,49.7,37.6,30.14,SSW,212,3.0,4.0,63,0.00,,---,0.00,VWS V14.01,2013-03-15 07:40:00,
2013-03-15 02:41:00,49.7,37.6,30.13,WSW,245,2.0,4.0,63,0.00,,---,0.00,VWS V14.01,2013-03-15 07:41:00,
2013-03-15 02:43:00,49.6,37.5,30.13,SSW,202,4.0,4.0,63,0.00,,---,0.00,VWS V14.01,2013-03-15 07:43:00,
2013-03-15 02:45:00,49.6,37.5,30.13,SSW,213,3.0,4.0,63,0.00,,---,0.00,VWS V14.01,2013-03-15 07:45:00,
2013-03-15 02:46:00,49.6,37.5,30.13,SSW,211,3.0,3.0,63,0.00,,---,0.00,VWS V14.01,2013-03-15 07:46:00,
2013-03-15 02:48:00,49.6,37.5,30.13,SW,227,2.0,3.0,63,0.00,,---,0.00,VWS V14.01,2013-03-15 07:48:00,
2013-03-15 02:50:00,49.6,37.5,30.13,WSW,242,2.0,3.0,63,0.00,,---,0.00,VWS V14.01,2013-03-15 07:50:00,
2013-03-15 02:51:00,49.6,37.5,30.13,SW,223,3.0,4.0,63,0.00,,---,0.00,VWS V14.01,2013-03-15 07:51:00,
2013-03-15 02:53:00,49.6,37.5,30.13,WSW,254,2.0,4.0,63,0.00,,---,0.00,VWS V14.01,2013-03-15 07:53:00,
2013-03-15 02:55:00,49.6,37.5,30.13,SW,215,2.0,4.0,63,0.00,,---,0.00,VWS V14.01,2013-03-15 07:55:00,
2013-03-15 02:57:00,49.6,37.5,30.13,SSW,200,3.0,4.0,63,0.00,,---,0.00,VWS V14.01,2013-03-15 07:57:00,
2013-03-15 02:58:00,49.5,37.4,30.13,WSW,240,2.0,6.0,63,0.00,,---,0.00,VWS V14.01,2013-03-15 07:58:00,
2013-03-15 03:00:00,49.6,37.5,30.13,SSW,210,3.0,6.0,63,0.00,,---,0.00,VWS V14.01,2013-03-15 08:00:00,
2013-03-15 03:01:00,49.5,37.4,30.13,SSW,207,3.0,4.0,63,0.00,,---,0.00,VWS V14.01,2013-03-15 08:01:00,
2013-03-15 03:02:00,49.5,37.4,30.13,SW,231,3.0,4.0,63,0.00,,---,0.00,VWS V14.01,2013-03-15 08:02:00,
2013-03-15 03:03:00,49.5,37.4,30.13,SW,221,1.0,4.0,63,0.00,,---,0.00,VWS V14.01,2013-03-15 08:03:00,
2013-03-15 03:05:00,49.6,37.5,30.13,WSW,238,1.0,6.0,63,0.00,,---,0.00,VWS V14.01,2013-03-15 08:05:00,
2013-03-15 03:06:00,49.6,37.5,30.13,South,172,3.0,6.0,63,0.00,,---,0.00,VWS V14.01,2013-03-15 08:06:00,
2013-03-15 03:07:00,49.6,37.5,30.13,SW,214,3.0,6.0,63,0.00,,---,0.00,VWS V14.01,2013-03-15 08:07:00,
2013-03-15 03:08:00,49.6,37.5,30.13,SW,214,3.0,6.0,63,0.00,,---,0.00,VWS V14.01,2013-03-15 08:08:00,
2013-03-15 03:10:00,49.6,37.9,30.13,SW,214,5.0,6.0,64,0.00,,---,0.00,VWS V14.01,2013-03-15 08:10:00,
2013-03-15 03:11:00,49.6,37.5,30.13,SSE,158,4.0,6.0,63,0.00,,---,0.00,VWS V14.01,2013-03-15 08:11:00,
2013-03-15 03:12:00,49.6,37.9,30.13,SW,221,3.0,6.0,64,0.00,,---,0.00,VWS V14.01,2013-03-15 08:12:00,
2013-03-15 03:13:00,49.6,37.9,30.13,SW,223,2.0,6.0,64,0.00,,---,0.00,VWS V14.01,2013-03-15 08:13:00,
2013-03-15 03:15:00,49.6,37.9,30.12,SSW,213,3.0,6.0,64,0.00,,---,0.00,VWS V14.01,2013-03-15 08:15:00,
2013-03-15 03:16:00,49.6,37.9,30.12,SW,221,2.0,4.0,64,0.00,,---,0.00,VWS V14.01,2013-03-15 08:16:00,
2013-03-15 03:17:00,49.6,37.9,30.12,SW,218,3.0,4.0,64,0.00,,---,0.00,VWS V14.01,2013-03-15 08:17:00,
2013-03-15 03:18:00,49.6,37.9,30.12,WSW,239,2.0,5.0,64,0.00,,---,0.00,VWS V14.01,2013-03-15 08:18:00,
2013-03-15 03:20:00,49.6,37.9,30.12,SW,216,3.0,6.0,64,0.00,,---,0.00,VWS V14.01,2013-03-15 08:20:00,
2013-03-15 03:22:00,49.5,37.8,30.12,SW,226,2.0,6.0,64,0.00,,---,0.00,VWS V14.01,2013-03-15 08:22:00,
2013-03-15 03:23:00,49.5,37.8,30.12,SW,216,2.0,6.0,64,0.00,,---,0.00,VWS V14.01,2013-03-15 08:23:00,
2013-03-15 03:25:00,49.4,37.8,30.12,WSW,237,4.0,6.0,64,0.00,,---,0.00,VWS V14.01,2013-03-15 08:25:00,
2013-03-15 03:27:00,49.3,37.7,30.12,SSW,210,4.0,6.0,64,0.00,,---,0.00,VWS V14.01,2013-03-15 08:27:00,
2013-03-15 03:28:00,49.3,37.7,30.12,SW,231,3.0,6.0,64,0.00,,---,0.00,VWS V14.01,2013-03-15 08:28:00,
2013-03-15 03:30:00,49.3,38.0,30.12,SW,214,3.0,4.0,65,0.00,,---,0.00,VWS V14.01,2013-03-15 08:30:00,
2013-03-15 03:32:00,49.3,38.0,30.12,SW,225,2.0,4.0,65,0.00,,,0.00,weatherlink.com 1.10,2013-03-15 08:32:00,
2013-03-15 03:33:00,49.3,38.0,30.12,SSE,168,2.0,5.0,65,0.00,,---,0.00,VWS V14.01,2013-03-15 08:33:00,
2013-03-15 03:35:00,49.4,38.1,30.12,South,178,4.0,7.0,65,0.00,,---,0.00,VWS V14.01,2013-03-15 08:35:00,
2013-03-15 03:37:00,49.4,38.1,30.12,SW,216,2.0,7.0,65,0.00,,---,0.00,VWS V14.01,2013-03-15 08:37:00,
2013-03-15 03:38:00,49.4,38.1,30.11,SSW,202,4.0,7.0,65,0.00,,---,0.00,VWS V14.01,2013-03-15 08:38:00,
2013-03-15 03:39:00,49.4,38.1,30.11,SW,218,3.0,7.0,65,0.00,,---,0.00,VWS V14.01,2013-03-15 08:39:00,
2013-03-15 03:40:00,49.3,38.0,30.11,SW,218,3.0,7.0,65,0.00,,---,0.00,VWS V14.01,2013-03-15 08:40:00,
2013-03-15 03:42:00,49.3,38.0,30.11,SSW,199,4.0,7.0,65,0.00,,---,0.00,VWS V14.01,2013-03-15 08:42:00,
2013-03-15 03:43:00,49.3,38.0,30.11,SW,218,1.0,7.0,65,0.00,,---,0.00,VWS V14.01,2013-03-15 08:43:00,
2013-03-15 03:44:00,49.3,38.0,30.11,SW,221,2.0,7.0,65,0.00,,---,0.00,VWS V14.01,2013-03-15 08:44:00,
2013-03-15 03:46:00,49.3,38.0,30.11,SW,225,3.0,3.0,65,0.00,,---,0.00,VWS V14.01,2013-03-15 08:46:00,
2013-03-15 03:47:00,49.3,38.0,30.11,SW,217,2.0,4.0,65,0.00,,---,0.00,VWS V14.01,2013-03-15 08:47:00,
2013-03-15 03:48:00,49.3,38.0,30.11,SSW,212,2.0,4.0,65,0.00,,---,0.00,VWS V14.01,2013-03-15 08:48:00,
2013-03-15 03:49:00,49.2,38.0,30.11,SW,228,1.0,4.0,65,0.00,,---,0.00,VWS V14.01,2013-03-15 08:49:00,
2013-03-15 03:51:00,49.2,38.0,30.11,SSW,210,2.0,4.0,65,0.00,,---,0.00,VWS V14.01,2013-03-15 08:51:00,
2013-03-15 03:52:00,49.2,38.0,30.11,SW,226,2.0,4.0,65,0.00,,---,0.00,VWS V14.01,2013-03-15 08:52:00,
2013-03-15 03:53:00,49.2,38.0,30.11,SW,225,3.0,4.0,65,0.00,,---,0.00,VWS V14.01,2013-03-15 08:53:00,
2013-03-15 03:54:00,49.2,38.0,30.11,SSW,212,3.0,6.0,65,0.00,,---,0.00,VWS V14.01,2013-03-15 08:54:00,
2013-03-15 03:56:00,49.2,38.0,30.11,SW,233,1.0,6.0,65,0.00,,---,0.00,VWS V14.01,2013-03-15 08:56:00,
2013-03-15 03:57:00,49.2,38.0,30.11,SW,228,2.0,6.0,65,0.00,,---,0.00,VWS V14.01,2013-03-15 08:57:00,
2013-03-15 03:58:00,49.2,38.0,30.11,SW,231,3.0,6.0,65,0.00,,---,0.00,VWS V14.01,2013-03-15 08:58:00,
2013-03-15 03:59:00,49.2,38.0,30.11,South,174,4.0,6.0,65,0.00,,---,0.00,VWS V14.01,2013-03-15 08:59:00,
2013-03-15 04:01:00,49.2,38.0,30.10,South,169,5.0,5.0,65,0.00,,---,0.00,VWS V14.01,2013-03-15 09:01:00,
2013-03-15 04:02:00,49.2,38.0,30.10,SSW,211,4.0,6.0,65,0.00,,---,0.00,VWS V14.01,2013-03-15 09:02:00,
2013-03-15 04:03:00,49.3,38.0,30.10,SW,235,2.0,6.0,65,0.00,,---,0.00,VWS V14.01,2013-03-15 09:03:00,
2013-03-15 04:04:00,49.3,38.0,30.10,SW,216,2.0,6.0,65,0.00,,---,0.00,VWS V14.01,2013-03-15 09:04:00,
2013-03-15 04:06:00,49.3,38.4,30.10,WSW,243,2.0,6.0,66,0.00,,---,0.00,VWS V14.01,2013-03-15 09:06:00,
2013-03-15 04:08:00,49.2,38.3,30.10,WSW,240,2.0,6.0,66,0.00,,---,0.00,VWS V14.01,2013-03-15 09:08:00,
2013-03-15 04:09:00,49.2,38.3,30.10,SW,236,2.0,6.0,66,0.00,,---,0.00,VWS V14.01,2013-03-15 09:09:00,
2013-03-15 04:12:00,49.1,38.2,30.10,SW,220,2.0,6.0,66,0.00,,---,0.00,VWS V14.01,2013-03-15 09:12:00,
2013-03-15 04:13:00,49.1,38.2,30.10,WSW,240,2.0,6.0,66,0.00,,---,0.00,VWS V14.01,2013-03-15 09:13:00,
2013-03-15 04:14:00,49.0,38.2,30.10,SW,228,3.0,6.0,66,0.00,,---,0.00,VWS V14.01,2013-03-15 09:14:00,
2013-03-15 04:17:00,49.0,38.2,30.10,SW,217,3.0,5.0,66,0.00,,---,0.00,VWS V14.01,2013-03-15 09:17:00,
2013-03-15 04:18:00,49.0,38.2,30.10,SW,235,2.0,5.0,66,0.00,,---,0.00,VWS V14.01,2013-03-15 09:18:00,
2013-03-15 04:19:00,48.9,38.1,30.10,SW,235,1.0,5.0,66,0.00,,---,0.00,VWS V14.01,2013-03-15 09:19:00,
2013-03-15 04:22:00,48.9,38.1,30.10,WSW,239,1.0,5.0,66,0.00,,---,0.00,VWS V14.01,2013-03-15 09:22:00,
2013-03-15 04:23:00,48.9,38.4,30.10,SW,227,2.0,5.0,67,0.00,,---,0.00,VWS V14.01,2013-03-15 09:23:00,
2013-03-15 04:24:00,48.9,38.4,30.10,SW,227,2.0,5.0,67,0.00,,---,0.00,VWS V14.01,2013-03-15 09:24:00,
2013-03-15 04:27:00,48.8,38.3,30.10,SW,226,2.0,5.0,67,0.00,,---,0.00,VWS V14.01,2013-03-15 09:27:00,
2013-03-15 04:28:00,48.8,38.3,30.10,SW,233,1.0,5.0,67,0.00,,---,0.00,VWS V14.01,2013-03-15 09:28:00,
2013-03-15 04:29:00,48.8,38.3,30.10,WSW,241,2.0,5.0,67,0.00,,---,0.00,VWS V14.01,2013-03-15 09:29:00,
2013-03-15 04:32:00,48.8,38.3,30.10,SW,231,2.0,4.0,67,0.00,,---,0.00,VWS V14.01,2013-03-15 09:32:00,
2013-03-15 04:33:00,48.8,38.3,30.10,SW,228,1.0,4.0,67,0.00,,---,0.00,VWS V14.01,2013-03-15 09:33:00,
2013-03-15 04:34:00,48.8,38.3,30.10,SW,221,2.0,4.0,67,0.00,,---,0.00,VWS V14.01,2013-03-15 09:34:00,
2013-03-15 04:37:00,48.7,38.2,30.10,SW,235,1.0,4.0,67,0.00,,---,0.00,VWS V14.01,2013-03-15 09:37:00,
2013-03-15 04:38:00,48.7,38.2,30.10,SSW,210,0.0,4.0,67,0.00,,---,0.00,VWS V14.01,2013-03-15 09:38:00,
2013-03-15 04:39:00,48.7,38.2,30.10,SSW,211,1.0,4.0,67,0.00,,---,0.00,VWS V14.01,2013-03-15 09:39:00,
2013-03-15 04:42:00,48.7,38.2,30.10,WSW,237,0.0,4.0,67,0.00,,---,0.00,VWS V14.01,2013-03-15 09:42:00,
2013-03-15 04:43:00,48.7,38.2,30.10,WSW,237,1.0,4.0,67,0.00,,---,0.00,VWS V14.01,2013-03-15 09:43:00,
2013-03-15 04:44:00,48.7,38.2,30.10,SW,235,1.0,4.0,67,0.00,,---,0.00,VWS V14.01,2013-03-15 09:44:00,
2013-03-15 04:47:00,48.5,38.4,30.10,SW,235,1.0,2.0,68,0.00,,---,0.00,VWS V14.01,2013-03-15 09:47:00,
2013-03-15 04:48:00,48.5,38.4,30.10,SW,231,1.0,2.0,68,0.00,,---,0.00,VWS V14.01,2013-03-15 09:48:00,
2013-03-15 04:49:00,48.5,38.4,30.10,SW,231,1.0,2.0,68,0.00,,---,0.00,VWS V14.01,2013-03-15 09:49:00,
2013-03-15 04:50:00,48.5,38.4,30.10,SW,231,1.0,2.0,68,0.00,,---,0.00,VWS V14.01,2013-03-15 09:50:00,
2013-03-15 04:52:00,48.4,38.3,30.10,SSW,205,2.0,3.0,68,0.00,,---,0.00,VWS V14.01,2013-03-15 09:52:00,
2013-03-15 04:53:00,48.5,38.4,30.10,SW,218,1.0,3.0,68,0.00,,---,0.00,VWS V14.01,2013-03-15 09:53:00,
2013-03-15 04:55:00,48.5,38.4,30.10,SW,231,0.0,3.0,68,0.00,,---,0.00,VWS V14.01,2013-03-15 09:55:00,
2013-03-15 04:57:00,48.5,38.4,30.10,WSW,249,1.0,3.0,68,0.00,,---,0.00,VWS V14.01,2013-03-15 09:57:00,
2013-03-15 04:58:00,48.4,38.3,30.10,WSW,250,2.0,3.0,68,0.00,,---,0.00,VWS V14.01,2013-03-15 09:58:00,
2013-03-15 05:00:00,48.4,38.3,30.10,WSW,249,0.0,3.0,68,0.00,,---,0.00,VWS V14.01,2013-03-15 10:00:00,
2013-03-15 05:02:00,48.3,38.2,30.10,WSW,250,1.0,2.0,68,0.00,,---,0.00,VWS V14.01,2013-03-15 10:02:00,
2013-03-15 05:03:00,48.3,38.2,30.10,WSW,250,0.0,2.0,68,0.00,,---,0.00,VWS V14.01,2013-03-15 10:03:00,
2013-03-15 05:05:00,48.3,38.2,30.10,SW,231,3.0,4.0,68,0.00,,---,0.00,VWS V14.01,2013-03-15 10:05:00,
2013-03-15 05:06:00,48.3,38.6,30.10,WSW,243,1.0,4.0,69,0.00,,---,0.00,VWS V14.01,2013-03-15 10:06:00,
2013-03-15 05:08:00,48.3,38.6,30.10,WSW,243,0.0,4.0,69,0.00,,---,0.00,VWS V14.01,2013-03-15 10:08:00,
2013-03-15 05:10:00,48.3,38.6,30.10,WSW,243,0.0,4.0,69,0.00,,---,0.00,VWS V14.01,2013-03-15 10:10:00,
2013-03-15 05:11:00,48.3,38.6,30.10,WSW,243,1.0,4.0,69,0.00,,---,0.00,VWS V14.01,2013-03-15 10:11:00,
2013-03-15 05:13:00,48.2,38.5,30.10,WSW,239,1.0,4.0,69,0.00,,---,0.00,VWS V14.01,2013-03-15 10:13:00,
2013-03-15 05:14:00,48.2,38.5,30.10,WSW,240,1.0,4.0,69,0.00,,---,0.00,VWS V14.01,2013-03-15 10:14:00,
2013-03-15 05:15:00,48.2,38.5,30.10,WSW,240,1.0,4.0,69,0.00,,---,0.00,VWS V14.01,2013-03-15 10:15:00,
2013-03-15 05:16:00,48.2,38.5,30.10,WSW,240,0.0,1.0,69,0.00,,---,0.00,VWS V14.01,2013-03-15 10:16:00,
2013-03-15 05:18:00,48.2,38.5,30.10,WSW,240,1.0,1.0,69,0.00,,---,0.00,VWS V14.01,2013-03-15 10:18:00,
2013-03-15 05:19:00,48.1,38.4,30.10,SW,214,2.0,2.0,69,0.00,,---,0.00,VWS V14.01,2013-03-15 10:19:00,
2013-03-15 05:20:00,48.1,38.4,30.10,SW,216,0.0,2.0,69,0.00,,---,0.00,VWS V14.01,2013-03-15 10:20:00,
2013-03-15 05:22:00,48.1,38.4,30.10,SW,216,0.0,2.0,69,0.00,,---,0.00,VWS V14.01,2013-03-15 10:22:00,
2013-03-15 05:23:00,48.1,38.4,30.10,SW,216,0.0,2.0,69,0.00,,---,0.00,VWS V14.01,2013-03-15 10:23:00,
2013-03-15 05:24:00,48.1,38.4,30.10,SW,216,1.0,2.0,69,0.00,,---,0.00,VWS V14.01,2013-03-15 10:24:00,
2013-03-15 05:25:00,48.1,38.4,30.10,SW,216,0.0,2.0,69,0.00,,---,0.00,VWS V14.01,2013-03-15 10:25:00,
2013-03-15 05:27:00,48.1,38.4,30.10,SW,221,0.0,2.0,69,0.00,,---,0.00,VWS V14.01,2013-03-15 10:27:00,
2013-03-15 05:28:00,48.0,38.3,30.10,SW,221,0.0,2.0,69,0.00,,---,0.00,VWS V14.01,2013-03-15 10:28:00,
2013-03-15 05:29:00,48.0,38.3,30.10,SW,221,0.0,2.0,69,0.00,,---,0.00,VWS V14.01,2013-03-15 10:29:00,
2013-03-15 05:30:00,48.0,38.3,30.10,SW,221,0.0,1.0,69,0.00,,---,0.00,VWS V14.01,2013-03-15 10:30:00,
2013-03-15 05:32:00,48.0,38.3,30.10,SW,221,1.0,1.0,69,0.00,,---,0.00,VWS V14.01,2013-03-15 10:32:00,
2013-03-15 05:33:00,47.9,38.2,30.10,SW,221,0.0,1.0,69,0.00,,---,0.00,VWS V14.01,2013-03-15 10:33:00,
2013-03-15 05:35:00,47.9,38.6,30.10,SW,231,1.0,1.0,70,0.00,,---,0.00,VWS V14.01,2013-03-15 10:35:00,
2013-03-15 05:37:00,47.9,38.6,30.10,SW,219,2.0,2.0,70,0.00,,---,0.00,VWS V14.01,2013-03-15 10:37:00,
2013-03-15 05:39:00,47.9,38.6,30.10,SW,221,1.0,2.0,70,0.00,,---,0.00,VWS V14.01,2013-03-15 10:39:00,
2013-03-15 05:40:00,47.9,38.6,30.10,SW,221,1.0,2.0,70,0.00,,---,0.00,VWS V14.01,2013-03-15 10:40:00,
2013-03-15 05:42:00,48.0,38.7,30.10,SW,221,0.0,2.0,70,0.00,,---,0.00,VWS V14.01,2013-03-15 10:42:00,
2013-03-15 05:44:00,47.9,38.6,30.10,SW,221,1.0,2.0,70,0.00,,---,0.00,VWS V14.01,2013-03-15 10:44:00,
2013-03-15 05:45:00,48.0,38.7,30.10,SW,221,1.0,2.0,70,0.00,,---,0.00,VWS V14.01,2013-03-15 10:45:00,
2013-03-15 05:46:00,47.9,38.6,30.10,SW,221,1.0,1.0,70,0.00,,---,0.00,VWS V14.01,2013-03-15 10:46:00,
2013-03-15 05:47:00,48.0,38.7,30.10,SW,221,0.0,2.0,70,0.00,,---,0.00,VWS V14.01,2013-03-15 10:47:00,
2013-03-15 05:49:00,47.9,38.6,30.10,SW,221,1.0,2.0,70,0.00,,---,0.00,VWS V14.01,2013-03-15 10:49:00,
2013-03-15 05:50:00,48.0,38.7,30.10,SW,223,2.0,2.0,70,0.00,,---,0.00,VWS V14.01,2013-03-15 10:50:00,
2013-03-15 05:51:00,47.9,38.6,30.10,SW,223,1.0,3.0,70,0.00,,---,0.00,VWS V14.01,2013-03-15 10:51:00,
2013-03-15 05:52:00,47.9,38.6,30.10,SW,223,2.0,3.0,70,0.00,,---,0.00,VWS V14.01,2013-03-15 10:52:00,
2013-03-15 05:54:00,47.9,38.6,30.10,SW,223,1.0,3.0,70,0.00,,---,0.00,VWS V14.01,2013-03-15 10:54:00,
2013-03-15 05:55:00,48.0,38.7,30.10,SW,214,1.0,3.0,70,0.00,,---,0.00,VWS V14.01,2013-03-15 10:55:00,
2013-03-15 05:56:00,48.0,38.7,30.10,SW,216,2.0,3.0,70,0.00,,---,0.00,VWS V14.01,2013-03-15 10:56:00,
2013-03-15 05:57:00,48.0,38.7,30.10,SW,223,0.0,3.0,70,0.00,,---,0.00,VWS V14.01,2013-03-15 10:57:00,
2013-03-15 05:59:00,48.0,38.7,30.10,SW,223,0.0,3.0,70,0.00,,---,0.00,VWS V14.01,2013-03-15 10:59:00,
2013-03-15 06:00:00,48.1,38.8,30.10,SW,223,0.0,3.0,70,0.00,,---,0.00,VWS V14.01,2013-03-15 11:00:00,
2013-03-15 06:01:00,48.1,38.8,30.10,SW,233,1.0,3.0,70,0.00,,---,0.00,VWS V14.01,2013-03-15 11:01:00,
2013-03-15 06:02:00,48.1,38.8,30.10,SW,234,0.0,3.0,70,0.00,,---,0.00,VWS V14.01,2013-03-15 11:02:00,
2013-03-15 06:04:00,48.1,38.8,30.10,SSW,207,1.0,3.0,70,0.00,,---,0.00,VWS V14.01,2013-03-15 11:04:00,
2013-03-15 06:05:00,48.1,38.8,30.10,SSW,207,2.0,3.0,70,0.00,,---,0.00,VWS V14.01,2013-03-15 11:05:00,
2013-03-15 06:07:00,48.2,38.9,30.10,SW,223,2.0,3.0,70,0.00,,---,0.00,VWS V14.01,2013-03-15 11:07:00,
2013-03-15 06:09:00,48.2,38.9,30.09,SW,225,1.0,3.0,70,0.00,,---,0.00,VWS V14.01,2013-03-15 11:09:00,
2013-03-15 06:10:00,48.2,38.9,30.09,SW,235,1.0,3.0,70,0.00,,---,0.00,VWS V14.01,2013-03-15 11:10:00,
2013-03-15 06:12:00,48.2,38.9,30.09,SW,214,2.0,3.0,70,0.00,,---,0.00,VWS V14.01,2013-03-15 11:12:00,
2013-03-15 06:13:00,48.2,38.9,30.09,SW,223,2.0,3.0,70,0.00,,---,0.00,VWS V14.01,2013-03-15 11:13:00,
2013-03-15 06:14:00,48.2,38.9,30.09,SW,231,1.0,3.0,70,0.00,,---,0.00,VWS V14.01,2013-03-15 11:14:00,
2013-03-15 06:15:00,48.3,39.0,30.09,SW,236,2.0,3.0,70,0.00,,---,0.00,VWS V14.01,2013-03-15 11:15:00,
2013-03-15 06:17:00,48.3,39.0,30.09,SW,226,1.0,3.0,70,0.00,,---,0.00,VWS V14.01,2013-03-15 11:17:00,
2013-03-15 06:18:00,48.3,39.0,30.09,SW,226,2.0,3.0,70,0.00,,---,0.00,VWS V14.01,2013-03-15 11:18:00,
2013-03-15 06:19:00,48.3,39.0,30.09,WSW,237,0.0,3.0,70,0.00,,---,0.00,VWS V14.01,2013-03-15 11:19:00,
2013-03-15 06:20:00,48.4,39.1,30.09,WSW,239,0.0,3.0,70,0.00,,---,0.00,VWS V14.01,2013-03-15 11:20:00,
2013-03-15 06:22:00,48.4,39.1,30.09,WSW,238,1.0,3.0,70,0.00,,---,0.00,VWS V14.01,2013-03-15 11:22:00,
2013-03-15 06:23:00,48.4,39.1,30.09,WSW,238,1.0,3.0,70,0.00,,---,0.00,VWS V14.01,2013-03-15 11:23:00,
2013-03-15 06:24:00,48.4,39.1,30.09,WSW,238,0.0,3.0,70,0.00,,---,0.00,VWS V14.01,2013-03-15 11:24:00,
2013-03-15 06:25:00,48.4,39.1,30.09,WSW,238,1.0,3.0,70,0.00,,---,0.00,VWS V14.01,2013-03-15 11:25:00,
2013-03-15 06:27:00,48.4,39.1,30.09,SSW,207,2.0,3.0,70,0.00,,---,0.00,VWS V14.01,2013-03-15 11:27:00,
2013-03-15 06:28:00,48.4,39.1,30.09,SW,223,1.0,3.0,70,0.00,,---,0.00,VWS V14.01,2013-03-15 11:28:00,
2013-03-15 06:29:00,48.5,39.2,30.09,SW,235,1.0,3.0,70,0.00,,---,0.00,VWS V14.01,2013-03-15 11:29:00,
2013-03-15 06:30:00,48.5,39.2,30.09,SW,235,1.0,3.0,70,0.00,,---,0.00,VWS V14.01,2013-03-15 11:30:00,
2013-03-15 06:32:00,48.5,39.2,30.09,SW,216,1.0,3.0,70,0.00,,---,0.00,VWS V14.01,2013-03-15 11:32:00,
2013-03-15 06:33:00,48.6,39.3,30.09,SW,216,0.0,3.0,70,0.00,,---,0.00,VWS V14.01,2013-03-15 11:33:00,
2013-03-15 06:35:00,48.6,39.3,30.09,SW,233,2.0,3.0,70,0.00,,---,0.00,VWS V14.01,2013-03-15 11:35:00,
2013-03-15 06:37:00,48.6,39.3,30.09,SW,216,3.0,3.0,70,0.00,,---,0.00,VWS V14.01,2013-03-15 11:37:00,
2013-03-15 06:38:00,48.6,39.3,30.09,SW,223,1.0,3.0,70,0.00,,---,0.00,VWS V14.01,2013-03-15 11:38:00,
2013-03-15 06:40:00,48.6,39.3,30.09,SW,214,2.0,3.0,70,0.00,,---,0.00,VWS V14.01,2013-03-15 11:40:00,
2013-03-15 06:42:00,48.7,39.4,30.09,SW,235,0.0,3.0,70,0.00,,---,0.00,VWS V14.01,2013-03-15 11:42:00,
2013-03-15 06:44:00,48.7,39.4,30.09,SW,235,1.0,3.0,70,0.00,,---,0.00,VWS V14.01,2013-03-15 11:44:00,
2013-03-15 06:45:00,48.8,39.5,30.09,SW,225,1.0,3.0,70,0.00,,---,0.00,VWS V14.01,2013-03-15 11:45:00,
2013-03-15 06:47:00,48.8,39.5,30.09,SW,235,2.0,2.0,70,0.00,,---,0.00,VWS V14.01,2013-03-15 11:47:00,
2013-03-15 06:49:00,48.8,39.5,30.09,WSW,254,1.0,2.0,70,0.00,,---,0.00,VWS V14.01,2013-03-15 11:49:00,
2013-03-15 06:50:00,48.8,39.5,30.09,WSW,254,1.0,2.0,70,0.00,,---,0.00,VWS V14.01,2013-03-15 11:50:00,
2013-03-15 06:52:00,48.8,39.5,30.10,WSW,254,0.0,2.0,70,0.00,,---,0.00,VWS V14.01,2013-03-15 11:52:00,
2013-03-15 06:54:00,48.8,39.5,30.10,WSW,247,0.0,2.0,70,0.00,,---,0.00,VWS V14.01,2013-03-15 11:54:00,
2013-03-15 06:55:00,48.8,39.5,30.10,WSW,247,0.0,2.0,70,0.00,,---,0.00,VWS V14.01,2013-03-15 11:55:00,
2013-03-15 06:56:00,48.8,39.5,30.09,WSW,247,1.0,2.0,70,0.00,,---,0.00,VWS V14.01,2013-03-15 11:56:00,
2013-03-15 06:57:00,48.7,39.4,30.10,WSW,247,0.0,2.0,70,0.00,,---,0.00,VWS V14.01,2013-03-15 11:57:00,
2013-03-15 06:59:00,48.7,39.4,30.10,WSW,247,0.0,2.0,70,0.00,,---,0.00,VWS V14.01,2013-03-15 11:59:00,
2013-03-15 07:00:00,48.7,39.4,30.10,WSW,247,1.0,2.0,70,0.00,,---,0.00,VWS V14.01,2013-03-15 12:00:00,
2013-03-15 07:01:00,48.7,39.4,30.10,WSW,237,1.0,2.0,70,0.00,,---,0.00,VWS V14.01,2013-03-15 12:01:00,
2013-03-15 07:02:00,48.8,39.8,30.10,WSW,237,0.0,2.0,71,0.00,,---,0.00,VWS V14.01,2013-03-15 12:02:00,
2013-03-15 07:04:00,48.8,39.5,30.10,SW,236,1.0,2.0,70,0.00,,---,0.00,VWS V14.01,2013-03-15 12:04:00,
2013-03-15 07:05:00,48.8,39.5,30.10,SW,236,0.0,2.0,70,0.00,,---,0.00,VWS V14.01,2013-03-15 12:05:00,
2013-03-15 07:06:00,48.7,39.4,30.10,WSW,237,0.0,2.0,70,0.00,,---,0.00,VWS V14.01,2013-03-15 12:06:00,
2013-03-15 07:07:00,48.7,39.7,30.10,WSW,237,1.0,2.0,71,0.00,,---,0.00,VWS V14.01,2013-03-15 12:07:00,
2013-03-15 07:09:00,48.7,39.7,30.10,WSW,238,0.0,2.0,71,0.00,,---,0.00,VWS V14.01,2013-03-15 12:09:00,
2013-03-15 07:10:00,48.7,39.7,30.10,WSW,238,1.0,2.0,71,0.00,,---,0.00,VWS V14.01,2013-03-15 12:10:00,
2013-03-15 07:11:00,48.7,39.7,30.10,WSW,238,1.0,2.0,71,0.00,,---,0.00,VWS V14.01,2013-03-15 12:11:00,
2013-03-15 07:12:00,48.7,39.7,30.10,WSW,238,0.0,2.0,71,0.00,,---,0.00,VWS V14.01,2013-03-15 12:12:00,
2013-03-15 07:14:00,48.6,39.6,30.10,WSW,238,0.0,2.0,71,0.00,,---,0.00,VWS V14.01,2013-03-15 12:14:00,
2013-03-15 07:15:00,48.6,39.6,30.10,WSW,238,1.0,2.0,71,0.00,,---,0.00,VWS V14.01,2013-03-15 12:15:00,
2013-03-15 07:16:00,48.6,39.6,30.10,WSW,238,0.0,1.0,71,0.00,,---,0.00,VWS V14.01,2013-03-15 12:16:00,
2013-03-15 07:18:00,48.6,39.6,30.10,WSW,238,2.0,2.0,71,0.00,,---,0.00,VWS V14.01,2013-03-15 12:18:00,
2013-03-15 07:19:00,48.5,39.5,30.10,WSW,237,1.0,2.0,71,0.00,,---,0.00,VWS V14.01,2013-03-15 12:19:00,
2013-03-15 07:20:00,48.5,39.5,30.10,SW,236,1.0,2.0,71,0.00,,---,0.00,VWS V14.01,2013-03-15 12:20:00,
2013-03-15 07:22:00,48.5,39.5,30.10,WSW,237,0.0,2.0,71,0.00,,---,0.00,VWS V14.01,2013-03-15 12:22:00,
2013-03-15 07:23:00,48.6,39.6,30.10,WSW,250,1.0,2.0,71,0.00,,---,0.00,VWS V14.01,2013-03-15 12:23:00,
2013-03-15 07:24:00,48.6,39.6,30.10,SW,220,1.0,2.0,71,0.00,,---,0.00,VWS V14.01,2013-03-15 12:24:00,
2013-03-15 07:27:00,48.6,39.6,30.10,SW,223,2.0,3.0,71,0.00,,---,0.00,VWS V14.01,2013-03-15 12:27:00,
2013-03-15 07:28:00,48.7,39.7,30.09,SW,214,2.0,3.0,71,0.00,,---,0.00,VWS V14.01,2013-03-15 12:28:00,
2013-03-15 07:29:00,48.7,39.7,30.10,SW,232,1.0,3.0,71,0.00,,---,0.00,VWS V14.01,2013-03-15 12:29:00,
2013-03-15 07:32:00,48.8,39.8,30.09,SW,216,0.0,2.0,71,0.00,,---,0.00,VWS V14.01,2013-03-15 12:32:00,
2013-03-15 07:33:00,48.9,39.9,30.09,SW,218,1.0,2.0,71,0.00,,---,0.00,VWS V14.01,2013-03-15 12:33:00,
2013-03-15 07:35:00,48.9,39.9,30.09,SSW,205,0.0,2.0,71,0.00,,---,0.00,VWS V14.01,2013-03-15 12:35:00,
2013-03-15 07:37:00,48.9,39.9,30.10,SW,226,2.0,3.0,71,0.00,,---,0.00,VWS V14.01,2013-03-15 12:37:00,
2013-03-15 07:38:00,49.0,40.0,30.09,SW,217,2.0,3.0,71,0.00,,---,0.00,VWS V14.01,2013-03-15 12:38:00,
2013-03-15 07:40:00,49.0,40.0,30.10,SW,233,2.0,4.0,71,0.00,,---,0.00,VWS V14.01,2013-03-15 12:40:00,
2013-03-15 07:42:00,49.1,40.1,30.10,WSW,238,1.0,4.0,71,0.00,,---,0.00,VWS V14.01,2013-03-15 12:42:00,
2013-03-15 07:43:00,49.2,40.2,30.10,WSW,238,1.0,4.0,71,0.00,,---,0.00,VWS V14.01,2013-03-15 12:43:00,
2013-03-15 07:45:00,49.2,40.2,30.10,SW,235,2.0,4.0,71,0.00,,---,0.00,VWS V14.01,2013-03-15 12:45:00,
2013-03-15 07:48:00,49.3,40.3,30.10,SW,235,2.0,3.0,71,0.00,,---,0.00,VWS V14.01,2013-03-15 12:48:00,
2013-03-15 07:50:00,49.5,40.5,30.10,SW,235,0.0,3.0,71,0.00,,---,0.00,VWS V14.01,2013-03-15 12:50:00,
2013-03-15 07:53:00,49.7,40.7,30.10,SW,227,2.0,3.0,71,0.00,,---,0.00,VWS V14.01,2013-03-15 12:53:00,
2013-03-15 07:55:00,49.9,40.5,30.10,WSW,244,2.0,3.0,70,0.00,,---,0.00,VWS V14.01,2013-03-15 12:55:00,
2013-03-15 07:58:00,50.0,40.6,30.10,WSW,237,1.0,3.0,70,0.00,,---,0.00,VWS V14.01,2013-03-15 12:58:00,
2013-03-15 08:00:00,50.2,40.8,30.10,SW,224,0.0,3.0,70,0.00,,---,0.00,VWS V14.01,2013-03-15 13:00:00,
2013-03-15 08:03:00,50.3,40.9,30.10,SW,228,1.0,4.0,70,0.00,,---,0.00,VWS V14.01,2013-03-15 13:03:00,
2013-03-15 08:05:00,50.5,41.1,30.10,West,260,2.0,4.0,70,0.00,,---,0.00,VWS V14.01,2013-03-15 13:05:00,
2013-03-15 08:08:00,50.6,41.2,30.09,SW,219,2.0,4.0,70,0.00,,---,0.00,VWS V14.01,2013-03-15 13:08:00,
2013-03-15 08:10:00,50.8,41.4,30.10,WSW,256,1.0,4.0,70,0.00,,---,0.00,VWS V14.01,2013-03-15 13:10:00,
2013-03-15 08:13:00,51.0,41.6,30.10,WSW,254,0.0,4.0,70,0.00,,---,0.00,VWS V14.01,2013-03-15 13:13:00,
2013-03-15 08:16:00,51.2,41.4,30.09,West,275,2.0,4.0,69,0.00,,---,0.00,VWS V14.01,2013-03-15 13:16:00,
2013-03-15 08:18:00,51.4,41.6,30.09,WSW,241,1.0,4.0,69,0.00,,---,0.00,VWS V14.01,2013-03-15 13:18:00,
2013-03-15 08:19:00,51.5,41.7,30.09,SW,233,1.0,4.0,69,0.00,,---,0.00,VWS V14.01,2013-03-15 13:19:00,
2013-03-15 08:21:00,51.8,42.0,30.09,WSW,242,2.0,4.0,69,0.00,,---,0.00,VWS V14.01,2013-03-15 13:21:00,
2013-03-15 08:23:00,52.0,41.8,30.09,SW,226,2.0,6.0,68,0.00,,---,0.00,VWS V14.01,2013-03-15 13:23:00,
2013-03-15 08:24:00,52.1,41.9,30.09,SW,227,1.0,6.0,68,0.00,,---,0.00,VWS V14.01,2013-03-15 13:24:00,
2013-03-15 08:26:00,52.3,42.1,30.09,West,260,2.0,8.0,68,0.00,,---,0.00,VWS V14.01,2013-03-15 13:26:00,
2013-03-15 08:29:00,52.6,42.0,30.09,WSW,250,2.0,9.0,67,0.00,,---,0.00,VWS V14.01,2013-03-15 13:29:00,
2013-03-15 08:31:00,52.7,42.1,30.09,SW,221,3.0,4.0,67,0.00,,---,0.00,VWS V14.01,2013-03-15 13:31:00,
2013-03-15 08:34:00,53.0,42.0,30.09,SW,226,4.0,6.0,66,0.00,,---,0.00,VWS V14.01,2013-03-15 13:34:00,
2013-03-15 08:36:00,53.2,42.2,30.09,West,260,9.0,9.0,66,0.00,,---,0.00,VWS V14.01,2013-03-15 13:36:00,
2013-03-15 08:39:00,53.4,42.3,30.09,SW,233,1.0,9.0,66,0.00,,---,0.00,VWS V14.01,2013-03-15 13:39:00,
2013-03-15 08:41:00,53.7,42.6,30.09,West,275,2.0,9.0,66,0.00,,---,0.00,VWS V14.01,2013-03-15 13:41:00,
2013-03-15 08:44:00,54.0,42.9,30.09,West,273,5.0,10.0,66,0.00,,---,0.00,VWS V14.01,2013-03-15 13:44:00,
2013-03-15 08:49:00,54.6,42.7,30.09,WSW,245,2.0,7.0,64,0.00,,---,0.00,VWS V14.01,2013-03-15 13:49:00,
2013-03-15 08:54:00,55.2,43.2,30.10,SW,223,4.0,7.0,64,0.00,,---,0.00,VWS V14.01,2013-03-15 13:54:00,
2013-03-15 08:55:00,55.3,43.3,30.09,West,267,4.0,7.0,64,0.00,,---,0.00,VWS V14.01,2013-03-15 13:55:00,
2013-03-15 08:59:00,55.6,43.6,30.09,West,265,5.0,11.0,64,0.00,,---,0.00,VWS V14.01,2013-03-15 13:59:00,
2013-03-15 09:00:00,55.7,43.3,30.09,West,263,4.0,11.0,63,0.00,,---,0.00,VWS V14.01,2013-03-15 14:00:00,
2013-03-15 09:04:00,56.1,43.7,30.09,WSW,250,1.0,8.0,63,0.00,,---,0.00,VWS V14.01,2013-03-15 14:04:00,
2013-03-15 09:05:00,56.1,43.7,30.09,West,270,1.0,8.0,63,0.00,,---,0.00,VWS V14.01,2013-03-15 14:05:00,
2013-03-15 09:09:00,56.5,43.7,30.09,WSW,255,7.0,8.0,62,0.00,,---,0.00,VWS V14.01,2013-03-15 14:09:00,
2013-03-15 09:10:00,56.5,43.7,30.09,West,271,6.0,8.0,62,0.00,,---,0.00,VWS V14.01,2013-03-15 14:10:00,
2013-03-15 09:15:00,56.8,43.9,30.10,NW,309,1.0,8.0,62,0.00,,---,0.00,VWS V14.01,2013-03-15 14:15:00,
2013-03-15 09:20:00,57.2,44.3,30.09,WSW,240,6.0,9.0,62,0.00,,---,0.00,VWS V14.01,2013-03-15 14:20:00,
2013-03-15 09:22:00,57.3,44.4,30.09,WNW,290,2.0,9.0,62,0.00,,---,0.00,VWS V14.01,2013-03-15 14:22:00,
2013-03-15 09:25:00,57.6,44.7,30.09,WSW,254,3.0,9.0,62,0.00,,---,0.00,VWS V14.01,2013-03-15 14:25:00,
2013-03-15 09:27:00,57.8,44.9,30.09,West,271,3.0,9.0,62,0.00,,---,0.00,VWS V14.01,2013-03-15 14:27:00,
2013-03-15 09:30:00,58.2,44.8,30.09,WNW,282,5.0,11.0,61,0.00,,---,0.00,VWS V14.01,2013-03-15 14:30:00,
2013-03-15 09:32:00,58.3,44.9,30.10,WNW,283,7.0,11.0,61,0.00,,---,0.00,VWS V14.01,2013-03-15 14:32:00,
2013-03-15 09:35:00,58.6,44.8,30.09,West,263,7.0,11.0,60,0.00,,---,0.00,VWS V14.01,2013-03-15 14:35:00,
2013-03-15 09:36:00,58.7,45.3,30.10,WNW,285,8.0,11.0,61,0.00,,---,0.00,VWS V14.01,2013-03-15 14:36:00,
2013-03-15 09:37:00,58.7,44.9,30.10,West,272,4.0,11.0,60,0.00,,---,0.00,VWS V14.01,2013-03-15 14:37:00,
2013-03-15 09:40:00,59.0,45.2,30.10,WNW,283,7.0,11.0,60,0.00,,---,0.00,VWS V14.01,2013-03-15 14:40:00,
2013-03-15 09:42:00,59.1,45.2,30.10,West,269,1.0,11.0,60,0.00,,---,0.00,VWS V14.01,2013-03-15 14:42:00,
2013-03-15 09:43:00,59.2,45.3,30.10,West,269,6.0,11.0,60,0.00,,---,0.00,VWS V14.01,2013-03-15 14:43:00,
2013-03-15 09:45:00,59.5,45.6,30.10,West,269,2.0,11.0,60,0.00,,---,0.00,VWS V14.01,2013-03-15 14:45:00,
2013-03-15 09:47:00,59.8,45.5,30.10,West,275,3.0,7.0,59,0.00,,---,0.00,VWS V14.01,2013-03-15 14:47:00,
2013-03-15 09:48:00,59.8,45.5,30.10,WNW,283,6.0,7.0,59,0.00,,---,0.00,VWS V14.01,2013-03-15 14:48:00,
2013-03-15 09:50:00,60.0,45.7,30.10,WNW,299,4.0,13.0,59,0.00,,---,0.00,VWS V14.01,2013-03-15 14:50:00,
2013-03-15 09:51:00,60.0,45.7,30.10,West,273,8.0,13.0,59,0.00,,---,0.00,VWS V14.01,2013-03-15 14:51:00,
2013-03-15 09:53:00,60.2,45.8,30.10,West,266,2.0,13.0,59,0.00,,---,0.00,VWS V14.01,2013-03-15 14:53:00,
2013-03-15 09:56:00,60.5,46.1,30.10,West,270,2.0,13.0,59,0.00,,---,0.00,VWS V14.01,2013-03-15 14:56:00,
2013-03-15 09:58:00,60.9,46.0,30.10,West,270,8.0,13.0,58,0.00,,---,0.00,VWS V14.01,2013-03-15 14:58:00,
2013-03-15 10:01:00,61.3,46.4,30.10,WSW,257,8.0,9.0,58,0.00,,---,0.00,VWS V14.01,2013-03-15 15:01:00,
2013-03-15 10:03:00,61.4,46.0,30.10,WSW,249,7.0,10.0,57,0.00,,---,0.00,VWS V14.01,2013-03-15 15:03:00,
2013-03-15 10:06:00,61.7,46.3,30.10,West,266,8.0,11.0,57,0.00,,---,0.00,VWS V14.01,2013-03-15 15:06:00,
2013-03-15 10:08:00,61.8,46.4,30.10,WSW,248,7.0,13.0,57,0.00,,---,0.00,VWS V14.01,2013-03-15 15:08:00,
2013-03-15 10:09:00,61.9,46.5,30.10,West,264,5.0,13.0,57,0.00,,---,0.00,VWS V14.01,2013-03-15 15:09:00,
2013-03-15 10:11:00,62.1,46.2,30.10,West,281,8.0,13.0,56,0.00,,---,0.00,VWS V14.01,2013-03-15 15:11:00,
2013-03-15 10:13:00,62.3,46.4,30.10,West,279,7.0,13.0,56,0.00,,---,0.00,VWS V14.01,2013-03-15 15:13:00,
2013-03-15 10:14:00,62.4,46.5,30.09,NW,308,6.0,13.0,56,0.00,,---,0.00,VWS V14.01,2013-03-15 15:14:00,
2013-03-15 10:17:00,62.6,46.2,30.10,West,262,4.0,11.0,55,0.00,,---,0.00,VWS V14.01,2013-03-15 15:17:00,
2013-03-15 10:18:00,62.6,46.2,30.09,West,278,9.0,11.0,55,0.00,,---,0.00,VWS V14.01,2013-03-15 15:18:00,
2013-03-15 10:19:00,62.7,46.8,30.10,WNW,292,11.0,14.0,56,0.00,,---,0.00,VWS V14.01,2013-03-15 15:19:00,
2013-03-15 10:22:00,62.8,46.4,30.09,WNW,287,5.0,14.0,55,0.00,,---,0.00,VWS V14.01,2013-03-15 15:22:00,
2013-03-15 10:23:00,62.9,46.5,30.10,WSW,247,8.0,14.0,55,0.00,,---,0.00,VWS V14.01,2013-03-15 15:23:00,
2013-03-15 10:24:00,63.0,47.1,30.10,WSW,256,8.0,14.0,56,0.00,,---,0.00,VWS V14.01,2013-03-15 15:24:00,
2013-03-15 10:27:00,63.3,46.9,30.09,WSW,240,4.0,14.0,55,0.00,,---,0.00,VWS V14.01,2013-03-15 15:27:00,
2013-03-15 10:28:00,63.4,47.0,30.10,WNW,283,5.0,14.0,55,0.00,,---,0.00,VWS V14.01,2013-03-15 15:28:00,
2013-03-15 10:29:00,63.5,47.1,30.09,NW,304,6.0,14.0,55,0.00,,---,0.00,VWS V14.01,2013-03-15 15:29:00,
2013-03-15 10:32:00,63.7,47.2,30.09,WNW,287,8.0,11.0,55,0.00,,---,0.00,VWS V14.01,2013-03-15 15:32:00,
2013-03-15 10:33:00,63.6,46.7,30.09,West,270,13.0,15.0,54,0.00,,---,0.00,VWS V14.01,2013-03-15 15:33:00,
2013-03-15 10:34:00,63.5,46.6,30.09,WNW,288,10.0,17.0,54,0.00,,---,0.00,VWS V14.01,2013-03-15 15:34:00,
2013-03-15 10:37:00,63.5,46.6,30.09,SW,226,10.0,17.0,54,0.00,,---,0.00,VWS V14.01,2013-03-15 15:37:00,
2013-03-15 10:38:00,63.5,46.6,30.09,West,270,8.0,17.0,54,0.00,,---,0.00,VWS V14.01,2013-03-15 15:38:00,
2013-03-15 10:39:00,63.5,46.6,30.09,West,271,7.0,17.0,54,0.00,,---,0.00,VWS V14.01,2013-03-15 15:39:00,
2013-03-15 10:40:00,63.5,46.6,30.09,West,275,9.0,17.0,54,0.00,,---,0.00,VWS V14.01,2013-03-15 15:40:00,
2013-03-15 10:42:00,63.7,46.8,30.09,WSW,251,6.0,17.0,54,0.00,,---,0.00,VWS V14.01,2013-03-15 15:42:00,
2013-03-15 10:43:00,63.9,47.4,30.09,West,270,10.0,17.0,55,0.00,,---,0.00,VWS V14.01,2013-03-15 15:43:00,
2013-03-15 10:45:00,64.0,47.0,30.09,WNW,285,5.0,17.0,54,0.00,,---,0.00,VWS V14.01,2013-03-15 15:45:00,
2013-03-15 10:47:00,64.3,47.3,30.09,West,273,7.0,13.0,54,0.00,,---,0.00,VWS V14.01,2013-03-15 15:47:00,
2013-03-15 10:48:00,64.3,46.8,30.09,West,276,4.0,13.0,53,0.00,,---,0.00,VWS V14.01,2013-03-15 15:48:00,
2013-03-15 10:50:00,64.2,46.7,30.09,WSW,254,5.0,13.0,53,0.00,,---,0.00,VWS V14.01,2013-03-15 15:50:00,
2013-03-15 10:52:00,64.2,46.7,30.08,WNW,290,7.0,13.0,53,0.00,,---,0.00,VWS V14.01,2013-03-15 15:52:00,
2013-03-15 10:54:00,64.3,47.3,30.08,West,281,3.0,13.0,54,0.00,,---,0.00,VWS V14.01,2013-03-15 15:54:00,
2013-03-15 10:55:00,64.5,47.5,30.08,West,276,4.0,13.0,54,0.00,,---,0.00,VWS V14.01,2013-03-15 15:55:00,
2013-03-15 10:58:00,64.8,47.3,30.08,WSW,242,4.0,13.0,53,0.00,,---,0.00,VWS V14.01,2013-03-15 15:58:00,
2013-03-15 10:59:00,64.9,47.4,30.08,SSW,200,3.0,13.0,53,0.00,,---,0.00,VWS V14.01,2013-03-15 15:59:00,
2013-03-15 11:00:00,65.0,47.5,30.08,West,278,5.0,13.0,53,0.00,,---,0.00,VWS V14.01,2013-03-15 16:00:00,
2013-03-15 11:03:00,65.2,47.7,30.08,WSW,242,6.0,9.0,53,0.00,,---,0.00,VWS V14.01,2013-03-15 16:03:00,
2013-03-15 11:04:00,65.3,47.2,30.08,SW,228,8.0,9.0,52,0.00,,---,0.00,VWS V14.01,2013-03-15 16:04:00,
2013-03-15 11:05:00,65.3,47.2,30.08,WNW,283,3.0,9.0,52,0.00,,---,0.00,VWS V14.01,2013-03-15 16:05:00,
2013-03-15 11:08:00,65.4,47.3,30.08,WSW,247,2.0,9.0,52,0.00,,---,0.00,VWS V14.01,2013-03-15 16:08:00,
2013-03-15 11:09:00,65.4,47.3,30.08,SW,220,6.0,10.0,52,0.00,,---,0.00,VWS V14.01,2013-03-15 16:09:00,
2013-03-15 11:10:00,65.4,47.3,30.08,West,259,5.0,10.0,52,0.00,,---,0.00,VWS V14.01,2013-03-15 16:10:00,
2013-03-15 11:13:00,65.5,47.9,30.08,West,273,5.0,12.0,53,0.00,,---,0.00,VWS V14.01,2013-03-15 16:13:00,
2013-03-15 11:14:00,65.5,47.4,30.08,WNW,288,8.0,14.0,52,0.00,,---,0.00,VWS V14.01,2013-03-15 16:14:00,
2013-03-15 11:15:00,65.5,47.4,30.08,West,270,4.0,8.0,52,0.00,,---,0.00,VWS V14.01,2013-03-15 16:15:00,
2013-03-15 11:19:00,65.4,47.3,30.08,West,267,9.0,12.0,52,0.00,,---,0.00,VWS V14.01,2013-03-15 16:19:00,
2013-03-15 11:20:00,65.5,47.4,30.08,West,278,8.0,12.0,52,0.00,,---,0.00,VWS V14.01,2013-03-15 16:20:00,
2013-03-15 11:24:00,65.8,47.7,30.07,South,188,7.0,12.0,52,0.00,,---,0.00,VWS V14.01,2013-03-15 16:24:00,
2013-03-15 11:25:00,66.0,48.4,30.07,West,259,4.0,13.0,53,0.00,,---,0.00,VWS V14.01,2013-03-15 16:25:00,
2013-03-15 11:29:00,66.1,48.0,30.07,SW,233,5.0,13.0,52,0.00,,---,0.00,VWS V14.01,2013-03-15 16:29:00,
2013-03-15 11:31:00,66.2,48.1,30.07,NW,318,4.0,4.0,52,0.00,,---,0.00,VWS V14.01,2013-03-15 16:31:00,
2013-03-15 11:34:00,66.5,48.3,30.07,WSW,240,7.0,13.0,52,0.00,,---,0.00,VWS V14.01,2013-03-15 16:34:00,
2013-03-15 11:36:00,66.6,48.4,30.07,West,278,12.0,14.0,52,0.00,,---,0.00,VWS V14.01,2013-03-15 16:36:00,
2013-03-15 11:39:00,66.8,48.6,30.07,WSW,242,4.0,14.0,52,0.00,,---,0.00,VWS V14.01,2013-03-15 16:39:00,
2013-03-15 11:41:00,67.1,48.4,30.07,WNW,285,10.0,14.0,51,0.00,,---,0.00,VWS V14.01,2013-03-15 16:41:00,
2013-03-15 11:42:00,67.2,49.0,30.07,WNW,295,4.0,14.0,52,0.00,,---,0.00,VWS V14.01,2013-03-15 16:42:00,
2013-03-15 11:44:00,67.5,49.3,30.07,West,260,4.0,14.0,52,0.00,,---,0.00,VWS V14.01,2013-03-15 16:44:00,
2013-03-15 11:46:00,67.9,48.6,30.07,SSW,198,5.0,10.0,50,0.00,,---,0.00,VWS V14.01,2013-03-15 16:46:00,
2013-03-15 11:47:00,67.9,48.6,30.07,West,259,3.0,10.0,50,0.00,,---,0.00,VWS V14.01,2013-03-15 16:47:00,
2013-03-15 11:49:00,68.1,48.8,30.07,WSW,251,3.0,10.0,50,0.00,,---,0.00,VWS V14.01,2013-03-15 16:49:00,
2013-03-15 11:51:00,68.2,48.3,30.07,West,278,7.0,10.0,49,0.00,,---,0.00,VWS V14.01,2013-03-15 16:51:00,
2013-03-15 11:52:00,68.2,48.3,30.07,WNW,297,6.0,10.0,49,0.00,,---,0.00,VWS V14.01,2013-03-15 16:52:00,
2013-03-15 11:54:00,68.2,48.9,30.06,SW,235,6.0,10.0,50,0.00,,---,0.00,VWS V14.01,2013-03-15 16:54:00,
2013-03-15 11:57:00,68.4,49.1,30.06,NW,306,5.0,10.0,50,0.00,,---,0.00,VWS V14.01,2013-03-15 16:57:00,
2013-03-15 11:59:00,68.7,48.8,30.06,SW,235,5.0,10.0,49,0.00,,---,0.00,VWS V14.01,2013-03-15 16:59:00,
2013-03-15 12:00:00,68.7,48.8,30.06,WSW,247,4.0,10.0,49,0.00,,---,0.00,VWS V14.01,2013-03-15 17:00:00,
2013-03-15 12:02:00,68.9,49.0,30.06,WSW,255,7.0,11.0,49,0.00,,---,0.00,VWS V14.01,2013-03-15 17:02:00,
2013-03-15 12:04:00,69.1,49.7,30.06,West,267,4.0,11.0,50,0.00,,---,0.00,VWS V14.01,2013-03-15 17:04:00,
2013-03-15 12:05:00,69.1,49.7,30.06,WSW,255,4.0,11.0,50,0.00,,---,0.00,VWS V14.01,2013-03-15 17:05:00,
2013-03-15 12:07:00,69.3,49.9,30.06,West,274,6.0,11.0,50,0.00,,---,0.00,VWS V14.01,2013-03-15 17:07:00,
2013-03-15 12:10:00,69.4,49.4,30.06,West,269,14.0,14.0,49,0.00,,---,0.00,VWS V14.01,2013-03-15 17:10:00,
2013-03-15 12:12:00,69.5,49.5,30.06,SW,223,5.0,14.0,49,0.00,,---,0.00,VWS V14.01,2013-03-15 17:12:00,
2013-03-15 12:15:00,69.6,49.1,30.05,West,275,9.0,14.0,48,0.00,,---,0.00,VWS V14.01,2013-03-15 17:15:00,
2013-03-15 12:16:00,69.6,49.6,30.05,West,271,8.0,8.0,49,0.00,,---,0.00,VWS V14.01,2013-03-15 17:16:00,
2013-03-15 12:17:00,69.7,49.7,30.05,SW,236,7.0,8.0,49,0.00,,---,0.00,VWS V14.01,2013-03-15 17:17:00,
2013-03-15 12:20:00,70.0,50.0,30.05,South,172,6.0,11.0,49,0.00,,---,0.00,VWS V14.01,2013-03-15 17:20:00,
2013-03-15 12:21:00,70.1,50.1,30.05,West,275,4.0,11.0,49,0.00,,---,0.00,VWS V14.01,2013-03-15 17:21:00,
2013-03-15 12:22:00,70.2,49.6,30.05,West,264,4.0,11.0,48,0.00,,---,0.00,VWS V14.01,2013-03-15 17:22:00,
2013-03-15 12:23:00,70.2,49.6,30.05,West,264,4.0,11.0,48,0.00,,---,0.00,VWS V14.01,2013-03-15 17:23:00,
2013-03-15 12:25:00,70.3,50.3,30.05,West,274,7.0,11.0,49,0.00,,---,0.00,VWS V14.01,2013-03-15 17:25:00,
2013-03-15 12:26:00,70.3,49.7,30.05,WNW,301,10.0,12.0,48,0.00,,---,0.00,VWS V14.01,2013-03-15 17:26:00,
2013-03-15 12:28:00,70.2,49.6,30.05,West,269,11.0,13.0,48,0.00,,---,0.00,VWS V14.01,2013-03-15 17:28:00,
2013-03-15 12:30:00,70.1,49.5,30.05,WNW,297,9.0,9.0,48,0.00,,---,0.00,VWS V14.01,2013-03-15 17:30:00,
2013-03-15 12:31:00,70.1,49.5,30.05,SW,228,6.0,9.0,48,0.00,,---,0.00,VWS V14.01,2013-03-15 17:31:00,
2013-03-15 12:33:00,70.1,49.5,30.05,WSW,238,8.0,15.0,48,0.00,,---,0.00,VWS V14.01,2013-03-15 17:33:00,
2013-03-15 12:35:00,70.4,50.3,30.05,South,182,9.0,15.0,49,0.00,,---,0.00,VWS V14.01,2013-03-15 17:35:00,
2013-03-15 12:36:00,70.4,49.8,30.05,SW,236,6.0,15.0,48,0.00,,---,0.00,VWS V14.01,2013-03-15 17:36:00,
2013-03-15 12:38:00,70.5,49.9,30.05,SW,225,6.0,15.0,48,0.00,,---,0.00,VWS V14.01,2013-03-15 17:38:00,
2013-03-15 12:40:00,70.8,50.2,30.05,West,275,6.0,15.0,48,0.00,,---,0.00,VWS V14.01,2013-03-15 17:40:00,
2013-03-15 12:42:00,70.9,50.2,30.04,WSW,240,3.0,15.0,48,0.00,,---,0.00,VWS V14.01,2013-03-15 17:42:00,
2013-03-15 12:43:00,71.0,50.3,30.04,SW,231,12.0,15.0,48,0.00,,---,0.00,VWS V14.01,2013-03-15 17:43:00,
2013-03-15 12:46:00,71.2,50.5,30.04,West,264,6.0,8.0,48,0.00,,---,0.00,VWS V14.01,2013-03-15 17:46:00,
2013-03-15 12:47:00,71.2,50.5,30.04,West,275,6.0,11.0,48,0.00,,---,0.00,VWS V14.01,2013-03-15 17:47:00,
2013-03-15 12:48:00,71.2,50.5,30.04,WSW,257,8.0,12.0,48,0.00,,---,0.00,VWS V14.01,2013-03-15 17:48:00,
2013-03-15 12:51:00,71.2,50.0,30.04,WNW,292,9.0,18.0,47,0.00,,---,0.00,VWS V14.01,2013-03-15 17:51:00,
2013-03-15 12:52:00,71.0,49.8,30.04,WNW,287,11.0,18.0,47,0.00,,---,0.00,VWS V14.01,2013-03-15 17:52:00,
2013-03-15 12:53:00,71.0,49.8,30.04,WSW,255,8.0,18.0,47,0.00,,---,0.00,VWS V14.01,2013-03-15 17:53:00,
2013-03-15 12:56:00,70.9,50.8,30.04,NW,305,10.0,18.0,49,0.00,,---,0.00,VWS V14.01,2013-03-15 17:56:00,
2013-03-15 12:57:00,71.1,51.0,30.04,WNW,289,13.0,18.0,49,0.00,,---,0.00,VWS V14.01,2013-03-15 17:57:00,
2013-03-15 12:58:00,71.1,51.0,30.04,WSW,252,10.0,18.0,49,0.00,,---,0.00,VWS V14.01,2013-03-15 17:58:00,
2013-03-15 13:02:00,71.2,50.5,30.04,West,268,6.0,13.0,48,0.00,,---,0.00,VWS V14.01,2013-03-15 18:02:00,
2013-03-15 13:03:00,71.1,51.0,30.03,WNW,282,7.0,13.0,49,0.00,,---,0.00,VWS V14.01,2013-03-15 18:03:00,
2013-03-15 13:07:00,71.3,51.2,30.03,West,269,15.0,18.0,49,0.00,,---,0.00,VWS V14.01,2013-03-15 18:07:00,
2013-03-15 13:08:00,71.4,51.3,30.04,West,274,9.0,18.0,49,0.00,,---,0.00,VWS V14.01,2013-03-15 18:08:00,
2013-03-15 13:12:00,71.4,50.7,30.03,WSW,240,5.0,18.0,48,0.00,,---,0.00,VWS V14.01,2013-03-15 18:12:00,
2013-03-15 13:13:00,71.4,50.7,30.03,WNW,285,4.0,18.0,48,0.00,,---,0.00,VWS V14.01,2013-03-15 18:13:00,
2013-03-15 13:17:00,72.1,51.9,30.03,SW,219,7.0,11.0,49,0.00,,---,0.00,VWS V14.01,2013-03-15 18:17:00,
2013-03-15 13:18:00,72.2,51.4,30.03,West,261,5.0,11.0,48,0.00,,---,0.00,VWS V14.01,2013-03-15 18:18:00,
2013-03-15 13:23:00,72.9,51.5,30.03,West,262,12.0,12.0,47,0.00,,---,0.00,VWS V14.01,2013-03-15 18:23:00,
2013-03-15 13:24:00,72.9,51.5,30.03,West,264,10.0,12.0,47,0.00,,---,0.00,VWS V14.01,2013-03-15 18:24:00,
2013-03-15 13:28:00,73.1,51.7,30.02,SW,214,11.0,14.0,47,0.00,,---,0.00,VWS V14.01,2013-03-15 18:28:00,
2013-03-15 13:29:00,73.2,51.8,30.02,SW,228,12.0,14.0,47,0.00,,---,0.00,VWS V14.01,2013-03-15 18:29:00,
2013-03-15 13:33:00,73.1,51.7,30.02,WSW,247,3.0,16.0,47,0.00,,---,0.00,VWS V14.01,2013-03-15 18:33:00,
2013-03-15 13:34:00,73.0,51.6,30.02,WSW,242,5.0,16.0,47,0.00,,---,0.00,VWS V14.01,2013-03-15 18:34:00,
2013-03-15 13:38:00,73.5,52.6,30.02,West,268,20.0,20.0,48,0.00,,---,0.00,VWS V14.01,2013-03-15 18:38:00,
2013-03-15 13:39:00,73.4,52.5,30.02,West,266,5.0,20.0,48,0.00,,---,0.00,VWS V14.01,2013-03-15 18:39:00,
2013-03-15 13:43:00,73.4,52.0,30.02,West,267,5.0,20.0,47,0.00,,---,0.00,VWS V14.01,2013-03-15 18:43:00,
2013-03-15 13:44:00,73.4,52.0,30.02,West,276,5.0,20.0,47,0.00,,---,0.00,VWS V14.01,2013-03-15 18:44:00,
2013-03-15 13:48:00,73.7,52.2,30.01,WSW,247,4.0,14.0,47,0.00,,---,0.00,VWS V14.01,2013-03-15 18:48:00,
2013-03-15 13:49:00,73.6,52.2,30.01,West,266,3.0,14.0,47,0.00,,---,0.00,VWS V14.01,2013-03-15 18:49:00,
2013-03-15 13:53:00,73.8,52.9,30.01,West,278,7.0,16.0,48,0.00,,---,0.00,VWS V14.01,2013-03-15 18:53:00,
2013-03-15 13:54:00,73.8,52.3,30.01,WSW,252,8.0,16.0,47,0.00,,---,0.00,VWS V14.01,2013-03-15 18:54:00,
2013-03-15 13:58:00,74.0,52.5,30.01,SW,229,5.0,16.0,47,0.00,,---,0.00,VWS V14.01,2013-03-15 18:58:00,
2013-03-15 13:59:00,74.0,53.1,30.01,WSW,240,3.0,16.0,48,0.00,,---,0.00,VWS V14.01,2013-03-15 18:59:00,
2013-03-15 14:04:00,74.1,52.6,30.00,WNW,283,5.0,14.0,47,0.00,,---,0.00,VWS V14.01,2013-03-15 19:04:00,
2013-03-15 14:10:00,74.3,53.0,30.00,West,259,12.0,15.0,48,0.00,,,0.00,weatherlink.com 1.10,2013-03-15 19:10:00,
2013-03-15 14:25:00,74.1,52.0,29.99,NW,307,10.0,18.0,47,0.00,,,0.00,weatherlink.com 1.10,2013-03-15 19:25:00,
2013-03-15 14:40:00,75.4,53.0,29.98,SW,216,4.0,14.0,46,0.00,,,0.00,weatherlink.com 1.10,2013-03-15 19:40:00,
2013-03-15 14:55:00,75.5,53.0,29.96,SW,217,4.0,16.0,45,0.00,,,0.00,weatherlink.com 1.10,2013-03-15 19:55:00,
2013-03-15 15:25:00,76.2,53.0,29.95,SW,223,9.0,16.0,45,0.00,,,0.00,weatherlink.com 1.10,2013-03-15 20:25:00,
2013-03-15 15:40:00,75.9,53.0,29.95,WNW,294,10.0,16.0,45,0.00,,,0.00,weatherlink.com 1.10,2013-03-15 20:40:00,
2013-03-15 15:55:00,76.2,54.0,29.94,West,269,4.0,16.0,46,0.00,,,0.00,weatherlink.com 1.10,2013-03-15 20:55:00,
2013-03-15 16:10:00,76.5,54.0,29.94,SW,214,5.0,16.0,45,0.00,,,0.00,weatherlink.com 1.10,2013-03-15 21:10:00,
2013-03-15 16:25:00,76.2,53.0,29.93,NW,304,9.0,15.0,45,0.00,,,0.00,weatherlink.com 1.10,2013-03-15 21:25:00,
2013-03-15 16:40:00,76.3,53.0,29.93,WSW,247,3.0,19.0,44,0.00,,,0.00,weatherlink.com 1.10,2013-03-15 21:40:00,
2013-03-15 16:55:00,76.0,52.0,29.93,West,263,6.0,13.0,44,0.00,,,0.00,weatherlink.com 1.10,2013-03-15 21:55:00,
2013-03-15 17:10:00,75.9,52.0,29.92,WNW,285,4.0,21.0,43,0.00,,,0.00,weatherlink.com 1.10,2013-03-15 22:10:00,
2013-03-15 17:25:00,75.8,52.0,29.92,NW,305,6.0,15.0,44,0.00,,,0.00,weatherlink.com 1.10,2013-03-15 22:25:00,
2013-03-15 17:40:00,75.4,52.0,29.91,West,268,9.0,18.0,44,0.00,,,0.00,weatherlink.com 1.10,2013-03-15 22:40:00,
2013-03-15 17:55:00,73.9,52.0,29.91,West,260,3.0,14.0,46,0.00,,,0.00,weatherlink.com 1.10,2013-03-15 22:55:00,
2013-03-15 18:10:00,73.3,52.0,29.91,SW,225,7.0,12.0,47,0.00,,,0.00,weatherlink.com 1.10,2013-03-15 23:10:00,
2013-03-15 18:25:00,73.3,52.0,29.90,West,273,3.0,14.0,47,0.00,,,0.00,weatherlink.com 1.10,2013-03-15 23:25:00,
2013-03-15 18:40:00,73.0,52.0,29.91,SSW,210,5.0,13.0,48,0.00,,,0.00,weatherlink.com 1.10,2013-03-15 23:40:00,
2013-03-15 18:55:00,71.8,52.0,29.90,SW,235,6.0,13.0,50,0.00,,,0.00,weatherlink.com 1.10,2013-03-15 23:55:00,
2013-03-15 19:10:00,71.0,52.0,29.90,WSW,245,4.0,11.0,51,0.00,,,0.00,weatherlink.com 1.10,2013-03-16 00:10:00,
2013-03-15 19:25:00,70.6,51.0,29.91,WSW,251,2.0,12.0,51,0.00,,,0.00,weatherlink.com 1.10,2013-03-16 00:25:00,
2013-03-15 19:40:00,70.0,51.0,29.90,SW,218,2.0,8.0,51,0.00,,,0.00,weatherlink.com 1.10,2013-03-16 00:40:00,
2013-03-15 19:55:00,69.3,51.0,29.90,SW,216,4.0,9.0,52,0.00,,,0.00,weatherlink.com 1.10,2013-03-16 00:55:00,
2013-03-15 20:10:00,69.0,51.0,29.90,WSW,247,5.0,8.0,53,0.00,,,0.00,weatherlink.com 1.10,2013-03-16 01:10:00,
2013-03-15 20:25:00,68.9,51.0,29.90,WSW,240,7.0,11.0,53,0.00,,,0.00,weatherlink.com 1.10,2013-03-16 01:25:00,
2013-03-15 20:40:00,68.4,50.0,29.89,WSW,240,4.0,13.0,53,0.00,,,0.00,weatherlink.com 1.10,2013-03-16 01:40:00,
2013-03-15 20:55:00,68.4,50.0,29.89,WSW,247,5.0,9.0,52,0.00,,,0.00,weatherlink.com 1.10,2013-03-16 01:55:00,
2013-03-15 21:10:00,68.1,50.0,29.89,WSW,239,8.0,10.0,52,0.00,,,0.00,weatherlink.com 1.10,2013-03-16 02:10:00,
2013-03-15 21:25:00,68.1,49.0,29.90,WSW,243,3.0,10.0,51,0.00,,,0.00,weatherlink.com 1.10,2013-03-16 02:25:00,
2013-03-15 21:40:00,67.9,49.0,29.90,WSW,243,2.0,11.0,51,0.00,,,0.00,weatherlink.com 1.10,2013-03-16 02:40:00,
2013-03-15 21:56:00,67.6,49.0,29.90,WSW,240,2.0,7.0,51,0.00,,,0.00,weatherlink.com 1.10,2013-03-16 02:56:00,
2013-03-15 22:11:00,67.3,48.0,29.90,SW,231,7.0,9.0,51,0.00,,,0.00,weatherlink.com 1.10,2013-03-16 03:11:00,
2013-03-15 22:26:00,66.7,48.0,29.90,SW,218,4.0,7.0,52,0.00,,,0.00,weatherlink.com 1.10,2013-03-16 03:26:00,
2013-03-15 22:41:00,66.4,48.0,29.89,SSW,195,3.0,9.0,52,0.00,,,0.00,weatherlink.com 1.10,2013-03-16 03:41:00,
2013-03-15 22:56:00,66.5,48.0,29.89,WSW,250,5.0,11.0,52,0.00,,,0.00,weatherlink.com 1.10,2013-03-16 03:56:00,
2013-03-15 23:11:00,66.4,48.0,29.89,West,271,2.0,11.0,52,0.00,,,0.00,weatherlink.com 1.10,2013-03-16 04:11:00,
2013-03-15 23:26:00,66.3,48.0,29.89,WNW,284,3.0,8.0,52,0.00,,,0.00,weatherlink.com 1.10,2013-03-16 04:26:00,
2013-03-15 23:41:00,66.2,48.0,29.89,WSW,240,7.0,10.0,52,0.00,,,0.00,weatherlink.com 1.10,2013-03-16 04:41:00,
2013-03-15 23:56:00,66.4,48.0,29.89,WNW,285,2.0,8.0,52,0.00,,,0.00,weatherlink.com 1.10,2013-03-16 04:56:00,